Regional Weather Roundup
Issued by NWS State College, PA

Home | Current Version | Previous Version | Text Only | Print | Product List | Glossary On
Versions: 1 2 3 4 5 6 7 8 9 10 11 12 13 14 15 16 17 18 19 20 21 22 23 24 25 26 27 28 29 30 31 32 33 34 35 36 37 38 39 40 41 42 43 44 45 46 47 48 49 50
000
ASUS41 KCTP 271110
RWRCTP

REGIONAL WEATHER ROUNDUP
NATIONAL WEATHER SERVICE STATE COLLEGE PA
600 AM EST THU NOV 27 2014

Note: "fair" indicates few or no clouds below 12,000 feet with no
significant weather and/or obstructions to visibility.

* = STATION THAT DOES NOT REPORT PRECIPITATION /E.G. RAIN...SNOW...ETC/
    THUNDER OR FOG.

PAZ002>004-007>009-013>016-020>023-029>032-271200-
WESTERN PENNSYLVANIA

CITY           SKY/WX    TMP DP  RH WIND       PRES   REMARKS
ERIE           CLOUDY    32  26  78 NE7       30.03R
MEADVILLE      CLOUDY    31  28  89 E7        29.97S
FRANKLIN*      CLOUDY    30  27  86 W3        29.98R
NEW CASTLE       N/A     30  27  89 CALM      30.02R
BEAVER COUNTY  NOT AVBL
BUTLER*        CLOUDY    30  30 100 W3        30.01R
PITTSBURGH INT CLOUDY    32  31  96 W3        30.00R FOG
PITTSBURGH     FOG       32  29  88 W5        29.99R VSB 1
INDIANA*       CLOUDY    32  32 100 SW3       30.01S FOG
LATROBE        CLOUDY    32  32 100 CALM      30.01R FOG
WASHINGTON CO* CLOUDY    32  28  86 CALM      30.02R
$$

PAZ004>006-010>012-017>019-024>028-033>037-041-042-045-046-049>053-271200-
CENTRAL PENNSYLVANIA

CITY           SKY/WX    TMP DP  RH WIND       PRES   REMARKS
BRADFORD       CLOUDY    26  22  84 CALM      29.95R
DUBOIS         CLOUDY    30  27  88 CALM      29.94S FOG
CLEARFIELD     CLOUDY    30  28  92 N3        29.96F
JOHNSTOWN      CLOUDY    28  27  96 CALM      29.92S FOG
ALTOONA        MIX PCPN  31  30  96 CALM      29.96S FOG
STATE COLLEGE  CLOUDY    30  28  93 CALM      29.97S
WILLIAMSPORT   CLOUDY    31  28  89 W7        29.99F
SELINSGROVE    CLOUDY    31  29  92 CALM      30.00R
FT INDIANTOWN  CLOUDY    33  26  76 NW3       29.99R
CAPITAL CITY   CLOUDY    34  28  79 W6        30.00R
HARRISBURG     CLOUDY    34  28  79 NW6       30.00R
YORK           CLOUDY    31  28  89 W3        29.99R
$$

PAZ038>040-043-044-047-048-054-055-060>062-067>071-271200-
EASTERN PENNSYLVANIA

CITY           SKY/WX    TMP DP  RH WIND       PRES   REMARKS
SCRANTON       LGT SNOW  30  26  85 W12       29.95S FOG
MOUNT POCONO   LGT SNOW  27  24  89 NW8       29.88S FOG
ALLENTOWN      LGT SNOW  33  29  85 NW3       29.94F FOG
QUAKERTOWN*    PTSUNNY   32  30  93 CALM      29.96S
READING        CLOUDY    34  29  82 NW3       29.97R
LANCASTER      CLOUDY    33  29  85 NW6       29.98S
COATESVILLE    CLOUDY    32  32 100 NW8       29.97R
POTTSTOWN      CLOUDY    32  31  96 NW6       29.98R
BLUE BELL      MOCLDY    34  32  93 CALM      29.96R
DOYLESTOWN     FLURRIES  32  31  96 VRB3      29.95S
WILLOW GROVE   NOT AVBL
NORTH PHILA    CLOUDY    36  30  79 W5        29.99S
PHILADELPHIA   CLOUDY    36  31  82 NW6       29.99R
$$


USA.gov is the U.S. government's official web portal to all federal, state and local government web resources and services.